Regional Weather Roundup
Issued by NWS Kansas City/Pleasant Hill, MO

Home | Current Version | Previous Version | Text Only | Print | Product List | Glossary On
Versions: 1 2 3 4 5 6 7 8 9 10 11 12 13 14 15 16 17 18 19 20 21 22 23 24 25 26 27
000
ASUS43 KEAX 261210
RWREAX

WEATHER ROUNDUP FOR EASTERN KANSAS AND NORTHWEST MISSOURI
NATIONAL WEATHER SERVICE KANSAS CITY/PLEASANT HILL MO
600 AM CST SUN FEB 26 2017

KSZ040-057-103>105-MOZ028-029-037-043-261300-
...KANSAS CITY METROPOLITAN AREA...

CITY           SKY/WX    TMP DP  RH WIND       PRES   REMARKS
K.C. INTL      CLOUDY    35  16  45 SW10      30.00R WCI  27
6HR MIN TEMP:  31; 6HR MAX TEMP:  35;

K.C. DOWNTOWN  CLOUDY    39  14  36 SW13      30.01R WCI  31
6HR MIN TEMP:  35; 6HR MAX TEMP:  39;

LEES SUMMIT    CLOUDY    35  15  44 SW13      30.01R WCI  26
6HR MIN TEMP:  33; 6HR MAX TEMP:  35;

OLATHE - IXD   CLOUDY    36  19  50 S13       30.02R WCI  27
6HR MIN TEMP:  29; 6HR MAX TEMP:  36;

OLATHE - OJC   CLOUDY    34  18  52 SW12G22   30.02R WCI  25
6HR MIN TEMP:  30; 6HR MAX TEMP:  34;

LAWRENCE       CLOUDY    35  19  52 SE6       30.02R WCI  30

$$

MOZ001>008-011>017-020>025-030>033-038>040-044>046-053-054-261300-
...NORTHERN AND CENTRAL MISSOURI...

CITY           SKY/WX    TMP DP  RH WIND       PRES   REMARKS
ST. JOSEPH     CLOUDY    27  20  75 S3        29.99R
6HR MIN TEMP:  27; 6HR MAX TEMP:  34;

MOSBY          CLOUDY    36  16  44 SW3       30.01S
WARRENSBURG    CLOUDY    34  19  55 S8        30.03R WCI  27
WHITEMAN AFB   CLOUDY    33  19  55 S10       30.02R WCI  24
6HR MIN TEMP:  26; 6HR MAX TEMP:  33;

CLINTON        CLOUDY    36  18  48 S9        30.05R WCI  29
SEDALIA        CLOUDY    37  14  38 S13       30.04S WCI  29
6HR MIN TEMP:  30; 6HR MAX TEMP:  37;

WARSAW         NOT AVBL
CHILLICOTHE      N/A     31  16  54 S7        30.00S WCI  24
6HR MIN TEMP:  27; 6HR MAX TEMP:  32;

KIRKSVILLE     CLOUDY    32  14  47 SW12      29.99S WCI  23
6HR MIN TEMP:  22; 6HR MAX TEMP:  33;


$$

MOZ041-047>049-056>058-063>065-088>090-097-261300-
...EASTERN AND SOUTHERN MISSOURI...

CITY           SKY/WX    TMP DP  RH WIND       PRES   REMARKS
ST. LOUIS INTL MOCLDY    32  13  45 S12       30.10R WCI  23
6HR MIN TEMP:  28; 6HR MAX TEMP:  33;

SPIRIT OF STL  PTCLDY    31  13  47 S9        30.10R WCI  23
COLUMBIA       CLOUDY    30  15  53 S10       30.04R WCI  21
JEFFERSON CITY CLOUDY    31  13  47 SE3       30.07R
ROLLA          PTCLDY    31  12  45 S12       30.05R WCI  22
OSAGE BEACH    CLOUDY    30  16  56 S7        30.07R WCI  23
SPRINGFIELD    CLOUDY    34  17  50 S13       30.03F WCI  25
BRANSON        CLOUDY    32  16  51 SE6       30.06R WCI  26
JOPLIN         CLOUDY    36  20  52 E6        30.02F WCI  31
WEST PLAINS    PTCLDY    30  11  45 SE5       30.10R WCI  25

$$

IAZ060-094-KSZ022-034>040-054-083-096-NEZ052-066-093-261300-
...KANSAS...SOUTHEAST NEBRASKA AND IOWA...

CITY           SKY/WX    TMP DP  RH WIND       PRES   REMARKS
TOPEKA         CLOUDY    38  26  62 S9        30.00R WCI  31
6HR MIN TEMP:  32; 6HR MAX TEMP:  39;

MANHATTAN      FLURRIES  36  29  75 SW6       29.99R WCI  31
EMPORIA        LGT SNOW  32  32 100 NE9       29.98F FOG     WCI  24
CHANUTE        CLOUDY    36  19  50 SE6       30.01R WCI  31
WICHITA        MOCLDY    34  21  59 SE9       29.93F WCI  27
OMAHA          MOCLDY    33  20  58 SW7       29.87R WCI  27
LINCOLN        CLEAR     30  21  69 SW9       29.89S WCI  22
FALLS CITY     MOCLDY    31  19  61 SW10      29.95R WCI  22
LAMONI         MOCLDY    31  17  56 SW16      29.92R WCI  20
DES MOINES     PTCLDY    29  20  69 SW12      29.88R WCI  19

$$





USA.gov is the U.S. government's official web portal to all federal, state and local government web resources and services.